EW3998 Weather Reports


Display with metric or nautical units.
time (UTC)temp
F
wind
direction
speed
MPH
gust
MPH
rain 1hr
in
rain 24hr
in
rain mn
in
humidity
%
barometer
mb
20221004191524 50 41 0.0 2.0 0.00 0.01 0.00 90 1024.0
20221004190023 50 333 0.0 4.0 0.00 0.01 0.00 90 1023.8
20221004184522 50 139 0.0 4.0 0.00 0.01 0.00 89 1023.6
20221004183023 51 145 0.0 6.0 0.00 0.01 0.00 88 1023.6
20221004181530 51 138 0.0 3.0 0.00 0.01 0.00 89 1023.6
20221004180021 50 147 0.0 3.0 0.00 0.01 0.00 89 1023.6
20221004174519 51 122 0.0 7.0 0.00 0.01 0.00 89 1023.8
20221004173013 51 118 0.0 6.0 0.00 0.01 0.00 89 1023.8
20221004161557 50 126 0.0 3.0 0.00 0.01 0.00 91 1023.7
20221004160052 50 152 0.0 5.0 0.00 0.01 0.00 91 1023.9
20221004154549 50 184 0.0 4.0 0.00 0.01 0.00 91 1024.0
20221004153047 50 50 0.0 8.0 0.00 0.01 0.00 91 1024.1
20221004151542 51 185 0.0 5.0 0.00 0.01 0.00 91 1024.2
20221004150047 50 100 1.0 5.0 0.00 0.01 0.00 91 1024.4
20221004144540 50 136 1.0 5.0 0.00 0.01 0.00 92 1024.4
20221004143038 50 155 0.0 3.0 0.00 0.01 0.00 92 1024.5
20221004141534 50 132 0.0 2.0 0.00 0.01 0.00 92 1024.6
20221004140029 49 167 0.0 5.0 0.00 0.01 0.00 92 1024.6
20221004134531 49 83 0.0 5.0 0.00 0.01 0.01 91 1024.7
20221004133028 49 153 0.0 3.0 0.00 0.01 0.01 91 1024.8
20221004131536 49 183 0.0 3.0 0.00 0.01 0.01 91 1024.9
20221004130027 49 113 0.0 4.0 0.00 0.01 0.01 90 1025.0
20221004124533 49 122 0.0 2.0 0.00 0.01 0.01 90 1024.9
20221004123025 50 150 0.0 3.0 0.00 0.01 0.01 90 1025.0
20221004121527 50 88 0.0 5.0 0.00 0.01 0.01 91 1025.0
20221004120024 50 106 0.0 1.0 0.00 0.01 0.01 91 1025.2
20221004114528 51 143 0.0 4.0 0.00 0.01 0.01 90 1025.2
20221004113022 51 145 0.0 1.0 0.00 0.01 0.01 90 1025.2
20221004111525 51 167 0.0 1.0 0.00 0.01 0.01 90 1025.1
20221004110022 50 165 0.0 5.0 0.00 0.01 0.01 91 1024.9
20221004104522 50 121 0.0 1.0 0.00 0.01 0.01 91 1024.7
20221004103025 49 127 0.0 2.0 0.00 0.01 0.01 91 1025.0
20221004101523 49 137 0.0 4.0 0.00 0.01 0.01 90 1025.0
20221004100020 49 128 0.0 1.0 0.00 0.01 0.01 90 1024.9
20221004094523 49 136 0.0 6.0 0.00 0.01 0.01 90 1024.9
20221004093021 49 114 0.0 1.0 0.00 0.01 0.01 89 1024.7
20221004091523 49 120 0.0 2.0 0.00 0.01 0.01 89 1024.6
20221004090022 50 150 0.0 2.0 0.00 0.01 0.01 89 1024.6
20221004084517 50 129 0.0 1.0 0.00 0.01 0.01 88 1024.5
20221004083017 50 152 0.0 2.0 0.00 0.01 0.01 87 1024.5
20221004081517 50 134 0.0 3.0 0.00 0.01 0.01 86 1024.5
20221004080015 51 134 0.0 1.0 0.00 0.01 0.01 85 1024.2
20221004074518 51 131 0.0 2.0 0.00 0.01 0.01 84 1024.1
20221004073013 51 143 0.0 3.0 0.00 0.01 0.01 82 1024.2
20221004071528 52 59 0.0 4.0 0.00 0.01 0.01 80 1024.2
20221004070013 52 150 0.0 5.0 0.00 0.01 0.01 80 1024.0
20221004064516 53 160 0.0 7.0 0.00 0.01 0.01 78 1024.0
20221004063011 53 34 0.0 2.0 0.00 0.01 0.01 78 1024.2
20221004061517 53 100 0.0 4.0 0.00 0.01 0.01 76 1024.3
20221004060011 54 157 0.0 5.0 0.00 0.01 0.01 74 1024.3
20221004054510 55 131 0.0 5.0 0.00 0.01 0.01 75 1024.2
20221004053010 55 113 0.0 4.0 0.00 0.01 0.01 74 1024.2
20221004051507 55 37 0.0 7.0 0.00 0.01 0.01 74 1024.2
20221004050005 55 129 0.0 4.0 0.00 0.01 0.01 72 1024.2
20221004043001 56 116 0.0 5.0 0.00 0.01 0.01 74 1024.3
20221004041600 55 79 0.0 2.0 0.00 0.01 0.01 74 1024.3
20221004040059 54 159 0.0 7.0 0.00 0.01 0.01 74 1024.3
20221004034557 54 255 0.0 5.0 0.00 0.01 0.01 73 1024.5
20221004033057 54 90 0.0 4.0 0.00 0.01 0.01 74 1024.7
20221004031554 54 98 0.0 4.0 0.00 0.01 0.01 74 1024.7
20221004030053 55 147 0.0 4.0 0.00 0.01 0.01 75 1024.9
20221004024556 55 172 0.0 5.0 0.00 0.01 0.01 74 1024.9
20221004023052 55 87 0.0 4.0 0.00 0.01 0.01 75 1025.0
20221004021547 54 110 1.0 5.0 0.00 0.01 0.01 78 1025.0
20221004020052 54 155 0.0 4.0 0.00 0.01 0.01 78 1025.0
20221004014546 55 18 0.0 5.0 0.00 0.01 0.01 78 1025.0
20221004013049 54 34 0.0 6.0 0.00 0.01 0.01 81 1025.1
20221004011544 54 105 0.0 3.0 0.00 0.01 0.01 82 1025.2
20221004010039 53 203 0.0 3.0 0.00 0.01 0.01 84 1025.3
20221004004539 54 141 0.0 1.0 0.00 0.01 0.01 85 1025.3
20221004003036 53 41 0.0 4.0 0.01 0.01 0.01 88 1025.3
20221004001535 53 148 0.0 3.0 0.01 0.01 0.01 91 1025.2
20221004000033 53 165 0.0 4.0 0.01 0.01 0.01 92 1025.3
20221003234532 52 131 0.0 2.0 0.01 0.01 0.01 93 1025.2
20221003233028 52 152 0.0 4.0 0.00 0.00 0.00 94 1025.2
20221003231526 52 247 0.0 2.0 0.00 0.00 0.00 95 1025.0
20221003230025 51 132 0.0 2.0 0.00 0.00 0.00 95 1024.9
20221003224522 52 141 0.0 2.0 0.00 0.00 0.00 96 1024.7
20221003223022 51 215 0.0 2.0 0.00 0.00 0.00 97 1024.6
20221003221516 50 108 0.0 2.0 0.00 0.00 0.00 97 1024.5
20221003220015 50 143 0.0 1.0 0.00 0.00 0.00 97 1024.5
20221003214514 50 146 0.0 0.0 0.00 0.00 0.00 97 1024.3
20221003213013 50 183 0.0 1.0 0.00 0.00 0.00 97 1024.3
20221003211512 50 146 0.0 1.0 0.00 0.00 0.00 97 1024.2
20221003210008 50 124 0.0 1.0 0.00 0.00 0.00 97 1024.0
20221003204505 50 147 0.0 0.0 0.00 0.00 0.00 97 1023.9
20221003203003 50 46 0.0 0.0 0.00 0.00 0.00 97 1023.8
20221003201501 50 148 0.0 1.0 0.00 0.00 0.00 97 1023.7
20221003200103 50 135 0.0 1.0 0.00 0.00 0.00 97 1023.5
20221003194558 50 117 0.0 0.0 0.00 0.00 0.00 97 1023.3
20221003193122 50 157 0.0 0.0 0.00 0.00 0.00 97 1023.1